Date String (YYYY-MM-DD hh:mm:ss) UTC,Instrument flags,absolute air pressure of the measurement (hPa),sample flow rate (lpm),inlet stack bypass flow (lpm),air temperature of the measurement (°C),ambient temperature measured by the external sensor (°C),aerosol sample conditioner tube jacket temperature (°C),OPC LED temperature (°C),internal box temperature (°C),relative humidity of the measurement (%),span deviation,mass concentration of particles derived from Lorenz-Mie calculation of OPC scattering (μg/m³),mass concentration of particles derived from Lorenz-Mie calculation of OPC scattering (μg/m³),mass concentration of particles derived from Lorenz-Mie calculation of OPC scattering (μg/m³)
DateTimeUTC,F1_M11,P_M11,Q1_M11,Q2_M11,T1_M11,T2_M11,T3_M11,T4_M11,T5_M11,U1_M11,ZSPAN_M11,X0_M11,X2_M11,X1_M11
2023-11-19 04:00:00,SystemResetWarning,0825.4,5.00,000.00,025.1,024.0,000.0,033.5,026.4,16.5,0000.0,0004.09,0001.29,0000.97
2023-11-19 04:01:00,SystemResetWarning,0825.4,5.01,000.00,025.1,024.0,000.0,033.5,026.4,16.1,0000.0,0004.04,0001.29,0001.00
2023-11-19 04:02:00,SystemResetWarning,0825.4,5.01,000.00,025.1,024.0,000.0,033.5,026.4,16.1,0000.0,0004.07,0001.31,0001.03
2023-11-19 04:03:00,SystemResetWarning,0825.4,5.00,000.00,025.1,024.0,000.0,033.5,026.3,17.2,0000.0,0004.09,0001.34,0001.07
2023-11-19 04:04:00,SystemResetWarning,0825.3,5.00,000.00,025.1,024.0,000.0,033.5,026.3,19.0,0000.0,0003.73,0001.34,0001.08
2023-11-19 04:05:00,SystemResetWarning,0825.3,5.00,000.00,025.1,024.0,000.0,033.5,026.3,20.0,0000.0,0002.33,0001.35,0001.09
2023-11-19 04:06:00,SystemResetWarning,0825.3,4.99,000.00,025.1,023.9,000.0,033.5,026.4,20.6,0000.0,0002.24,0001.32,0001.07
2023-11-19 04:07:00,SystemResetWarning,0825.3,4.99,000.00,025.1,023.9,000.0,033.5,026.4,20.7,0000.0,0002.11,0001.28,0001.06
2023-11-19 04:08:00,SystemResetWarning,0825.2,5.00,000.00,025.0,023.9,000.0,033.4,026.4,20.7,0000.0,0002.13,0001.25,0001.03
2023-11-19 04:09:00,SystemResetWarning,0825.2,5.00,000.00,025.0,023.9,000.0,033.4,026.4,20.8,0000.0,0001.97,0001.22,0001.03
2023-11-19 04:10:00,SystemResetWarning,0825.2,5.00,000.00,025.0,023.8,000.0,033.4,026.3,21.1,0000.0,0001.71,0001.18,0001.00
2023-11-19 04:11:00,SystemResetWarning,0825.2,5.01,000.00,025.0,023.8,000.0,033.4,026.3,20.8,0000.0,0001.73,0001.17,0000.97
2023-11-19 04:12:00,SystemResetWarning,0825.2,5.00,000.00,025.0,023.8,000.0,033.4,026.3,20.9,0000.0,0001.85,0001.17,0000.95
2023-11-19 04:13:00,SystemResetWarning,0825.3,5.00,000.00,025.0,023.8,000.0,033.4,026.3,20.9,0000.0,0002.31,0001.19,0000.95
2023-11-19 04:14:00,SystemResetWarning,0825.2,4.99,000.00,025.0,023.7,000.0,033.4,026.2,20.9,0000.0,0002.46,0001.18,0000.93
2023-11-19 04:15:00,SystemResetWarning,0825.2,5.00,000.00,025.0,023.7,000.0,033.4,026.2,20.8,0000.0,0002.50,0001.19,0000.93
2023-11-19 04:16:00,SystemResetWarning,0825.2,5.00,000.00,024.9,023.7,000.0,033.4,026.2,20.8,0000.0,0002.82,0001.18,0000.92
2023-11-19 04:17:00,SystemResetWarning,0825.1,5.00,000.00,024.9,023.7,000.0,033.4,026.2,20.8,0000.0,0003.33,0001.18,0000.92
2023-11-19 04:18:00,SystemResetWarning,0825.1,5.00,000.00,024.9,023.7,000.0,033.4,026.2,20.8,0000.0,0003.29,0001.18,0000.94
2023-11-19 04:19:00,SystemResetWarning,0825.1,5.00,000.00,024.9,023.7,000.0,033.4,026.3,20.8,0000.0,0003.27,0001.19,0000.95
2023-11-19 04:20:00,SystemResetWarning,0825.1,5.00,000.00,024.9,023.6,000.0,033.3,026.3,20.7,0000.0,0003.43,0001.24,0000.95
2023-11-19 04:21:00,SystemResetWarning,0825.1,5.00,000.00,024.9,023.6,000.0,033.3,026.3,20.6,0000.0,0003.50,0001.25,0000.96
2023-11-19 04:22:00,SystemResetWarning,0825.1,5.00,000.00,024.9,023.6,000.0,033.3,026.3,20.6,0000.0,0003.56,0001.28,0000.98
2023-11-19 04:23:00,SystemResetWarning,0825.1,5.00,000.00,024.9,023.6,000.0,033.3,026.2,20.5,0000.0,0003.45,0001.26,0000.98
2023-11-19 04:24:00,SystemResetWarning,0825.1,5.00,000.00,024.9,023.6,000.0,033.3,026.2,20.6,0000.0,0003.07,0001.24,0000.98
2023-11-19 04:25:00,SystemResetWarning,0825.1,5.00,000.00,024.9,023.6,000.0,033.3,026.2,20.6,0000.0,0002.88,0001.26,0000.98
2023-11-19 04:26:00,SystemResetWarning,0825.1,5.00,000.00,024.9,023.6,000.0,033.3,026.2,20.6,0000.0,0002.94,0001.31,0000.99
2023-11-19 04:27:00,SystemResetWarning,0825.1,5.00,000.00,024.9,023.6,000.0,033.3,026.2,20.5,0000.0,0002.71,0001.31,0001.00
2023-11-19 04:28:00,SystemResetWarning,0825.1,5.00,000.00,024.9,023.5,000.0,033.3,026.2,20.5,0000.0,0002.13,0001.32,0001.01
2023-11-19 04:29:00,SystemResetWarning,0825.0,5.00,000.00,024.8,023.6,000.0,033.3,026.2,20.5,0000.0,0002.16,0001.35,0001.02
2023-11-19 04:30:00,SystemResetWarning,0825.0,5.01,000.00,024.8,023.5,000.0,033.3,026.2,20.4,0000.0,0002.13,0001.34,0001.02
2023-11-19 04:31:00,SystemResetWarning,0825.0,5.00,000.00,024.8,023.5,000.0,033.3,026.2,20.3,0000.0,0001.91,0001.30,0001.03
2023-11-19 04:32:00,SystemResetWarning,0825.0,5.00,000.00,024.8,023.5,000.0,033.3,026.2,20.1,0000.0,0001.84,0001.29,0001.03
2023-11-19 04:33:00,SystemResetWarning,0825.0,5.00,000.00,024.8,023.5,000.0,033.2,026.2,20.2,0000.0,0001.79,0001.29,0001.04
2023-11-19 04:34:00,SystemResetWarning,0824.9,5.00,000.00,024.8,023.5,000.0,033.2,026.1,20.2,0000.0,0001.79,0001.30,0001.06
2023-11-19 04:35:00,SystemResetWarning,0824.9,5.00,000.00,024.8,023.5,000.0,033.2,026.2,20.1,0000.0,0001.78,0001.31,0001.07
2023-11-19 04:36:00,SystemResetWarning,0824.9,4.99,000.00,024.8,023.5,000.0,033.2,026.2,20.0,0000.0,0001.79,0001.29,0001.07
2023-11-19 04:37:00,SystemResetWarning,0824.9,5.00,000.00,024.8,023.5,000.0,033.2,026.2,20.0,0000.0,0001.80,0001.26,0001.07
2023-11-19 04:38:00,SystemResetWarning,0824.9,5.00,000.00,024.8,023.5,000.0,033.2,026.1,19.8,0000.0,0001.93,0001.32,0001.08
2023-11-19 04:39:00,SystemResetWarning,0824.9,5.00,000.00,024.8,023.5,000.0,033.2,026.1,20.0,0000.0,0001.94,0001.33,0001.08
2023-11-19 04:40:00,SystemResetWarning,0825.0,5.00,000.00,024.8,023.5,000.0,033.2,026.1,20.1,0000.0,0001.90,0001.30,0001.08
2023-11-19 04:41:00,SystemResetWarning,0825.0,5.00,000.00,024.8,023.5,000.0,033.2,026.2,20.4,0000.0,0001.92,0001.32,0001.09
2023-11-19 04:42:00,SystemResetWarning,0825.0,5.00,000.00,024.8,023.5,000.0,033.2,026.1,20.7,0000.0,0001.99,0001.37,0001.11
2023-11-19 04:43:00,SystemResetWarning,0824.9,5.00,000.00,024.8,023.5,000.0,033.2,026.1,20.7,0000.0,0002.07,0001.39,0001.12
2023-11-19 04:44:00,SystemResetWarning,0825.0,5.01,000.00,024.8,023.6,000.0,033.2,026.1,20.6,0000.0,0002.05,0001.39,0001.12
2023-11-19 04:45:00,SystemResetWarning,0824.9,5.01,000.00,024.8,023.5,000.0,033.2,026.1,20.4,0000.0,0002.09,0001.41,0001.13
2023-11-19 04:46:00,SystemResetWarning,0824.9,5.00,000.00,024.7,023.5,000.0,033.2,026.1,20.4,0000.0,0002.25,0001.46,0001.13
2023-11-19 04:47:00,SystemResetWarning,0824.9,5.00,000.00,024.7,023.6,000.0,033.2,026.1,20.3,0000.0,0002.24,0001.46,0001.13
2023-11-19 04:48:00,SystemResetWarning,0824.9,5.00,000.00,024.7,023.6,000.0,033.2,026.1,20.3,0000.0,0002.24,0001.47,0001.14
2023-11-19 04:49:00,SystemResetWarning,0824.9,5.00,000.00,024.7,023.6,000.0,033.2,026.1,20.3,0000.0,0002.20,0001.45,0001.14
2023-11-19 04:50:00,SystemResetWarning,0824.9,5.00,000.00,024.7,023.6,000.0,033.2,026.1,20.3,0000.0,0002.11,0001.42,0001.14
2023-11-19 04:51:00,SystemResetWarning,0824.9,5.00,000.00,024.8,023.6,000.0,033.2,026.1,20.3,0000.0,0002.03,0001.40,0001.14
2023-11-19 04:52:00,SystemResetWarning,0824.9,5.00,000.00,024.8,023.6,000.0,033.1,026.1,20.1,0000.0,0002.06,0001.40,0001.14
2023-11-19 04:53:00,SystemResetWarning,0824.9,5.00,000.00,024.8,023.6,000.0,033.1,026.2,19.9,0000.0,0002.09,0001.39,0001.13
2023-11-19 04:54:00,SystemResetWarning,0824.9,4.99,000.00,024.8,023.6,000.0,033.1,026.2,19.8,0000.0,0002.11,0001.40,0001.12
2023-11-19 04:55:00,SystemResetWarning,0824.9,4.99,000.00,024.8,023.6,000.0,033.2,026.2,19.6,0000.0,0002.10,0001.39,0001.11
2023-11-19 04:56:00,SystemResetWarning,0824.9,4.99,000.00,024.8,023.7,000.0,033.2,026.1,19.7,0000.0,0002.06,0001.36,0001.09
2023-11-19 04:57:00,SystemResetWarning,0824.9,5.00,000.00,024.8,023.6,000.0,033.1,026.1,19.8,0000.0,0001.87,0001.29,0001.08
2023-11-19 04:58:00,SystemResetWarning,0824.9,5.00,000.00,024.8,023.6,000.0,033.1,026.1,19.9,0000.0,0001.87,0001.30,0001.08
2023-11-19 04:59:00,SystemResetWarning,0824.9,5.00,000.00,024.8,023.6,000.0,033.1,026.2,19.8,0000.0,0001.76,0001.27,0001.07
